Time,TemperatureF,DewpointF,PressureIn,WindDirection,WindDirectionDegrees,WindSpeedMPH,WindSpeedGustMPH,Humidity,HourlyPrecipIn,Conditions,Clouds,dailyrainin,SoftwareType,DateUTC
2013-02-21 00:02:00,20.1,17.0,29.85,NNE,30,0.0,2.0,88,0.00,,,0.00,weatherlink.com 1.10,2013-02-21 07:02:00,
2013-02-21 00:17:00,20.2,17.0,29.85,NE,36,1.0,2.0,88,0.00,,,0.00,weatherlink.com 1.10,2013-02-21 07:17:00,
2013-02-21 00:32:00,20.0,17.0,29.85,NE,42,1.0,3.0,88,0.00,,,0.00,weatherlink.com 1.10,2013-02-21 07:32:00,
2013-02-21 00:47:00,19.7,17.0,29.84,NE,38,2.0,6.0,88,0.00,,,0.00,weatherlink.com 1.10,2013-02-21 07:47:00,
2013-02-21 01:02:00,19.5,17.0,29.85,NNE,26,2.0,4.0,88,0.00,,,0.00,weatherlink.com 1.10,2013-02-21 08:02:00,
2013-02-21 01:17:00,19.4,16.0,29.85,NE,38,0.0,3.0,87,0.00,,,0.00,weatherlink.com 1.10,2013-02-21 08:17:00,
2013-02-21 01:32:00,19.3,16.0,29.85,NE,42,0.0,3.0,88,0.00,,,0.00,weatherlink.com 1.10,2013-02-21 08:32:00,
2013-02-21 01:47:00,19.2,16.0,29.86,NNE,25,0.0,4.0,88,0.00,,,0.00,weatherlink.com 1.10,2013-02-21 08:47:00,
2013-02-21 02:02:00,19.0,16.0,29.85,NE,46,0.0,3.0,88,0.00,,,0.00,weatherlink.com 1.10,2013-02-21 09:02:00,
2013-02-21 02:17:00,18.7,16.0,29.85,NE,40,0.0,3.0,87,0.00,,,0.00,weatherlink.com 1.10,2013-02-21 09:17:00,
2013-02-21 02:32:00,18.1,15.0,29.86,NE,41,1.0,3.0,87,0.00,,,0.00,weatherlink.com 1.10,2013-02-21 09:32:00,
2013-02-21 02:47:00,17.3,14.0,29.85,NE,37,0.0,3.0,87,0.00,,,0.00,weatherlink.com 1.10,2013-02-21 09:47:00,
2013-02-21 03:02:00,17.1,14.0,29.85,NE,38,0.0,3.0,87,0.00,,,0.00,weatherlink.com 1.10,2013-02-21 10:02:00,
2013-02-21 03:17:00,17.0,14.0,29.85,NE,35,1.0,2.0,87,0.00,,,0.00,weatherlink.com 1.10,2013-02-21 10:17:00,
2013-02-21 03:32:00,16.9,14.0,29.85,NNE,22,1.0,4.0,87,0.00,,,0.00,weatherlink.com 1.10,2013-02-21 10:32:00,
2013-02-21 03:48:00,16.7,13.0,29.86,NE,52,1.0,4.0,86,0.00,,,0.00,weatherlink.com 1.10,2013-02-21 10:48:00,
2013-02-21 04:02:00,16.6,13.0,29.87,NE,36,0.0,4.0,86,0.00,,,0.00,weatherlink.com 1.10,2013-02-21 11:02:00,
2013-02-21 04:17:00,16.5,13.0,29.88,NE,49,1.0,4.0,86,0.00,,,0.00,weatherlink.com 1.10,2013-02-21 11:17:00,
2013-02-21 04:32:00,16.3,13.0,29.88,NE,49,0.0,2.0,87,0.00,,,0.00,weatherlink.com 1.10,2013-02-21 11:32:00,
2013-02-21 04:47:00,16.0,13.0,29.89,ENE,63,1.0,3.0,87,0.00,,,0.00,weatherlink.com 1.10,2013-02-21 11:47:00,
2013-02-21 05:02:00,16.0,13.0,29.90,NE,38,0.0,3.0,87,0.00,,,0.00,weatherlink.com 1.10,2013-02-21 12:02:00,
2013-02-21 05:18:00,15.9,13.0,29.90,NE,38,0.0,3.0,87,0.00,,,0.00,weatherlink.com 1.10,2013-02-21 12:18:00,
2013-02-21 05:32:00,16.0,13.0,29.90,NE,38,0.0,1.0,87,0.00,,,0.00,weatherlink.com 1.10,2013-02-21 12:32:00,
2013-02-21 05:47:00,16.0,13.0,29.91,NE,38,0.0,1.0,87,0.00,,,0.00,weatherlink.com 1.10,2013-02-21 12:47:00,
2013-02-21 06:02:00,15.9,13.0,29.92,NE,38,0.0,1.0,87,0.00,,,0.00,weatherlink.com 1.10,2013-02-21 13:02:00,
2013-02-21 06:18:00,15.9,13.0,29.92,ENE,65,1.0,1.0,87,0.00,,,0.00,weatherlink.com 1.10,2013-02-21 13:18:00,
2013-02-21 06:33:00,15.9,13.0,29.93,ENE,65,0.0,1.0,87,0.00,,,0.00,weatherlink.com 1.10,2013-02-21 13:33:00,
2013-02-21 06:48:00,15.8,13.0,29.93,ENE,65,0.0,1.0,87,0.00,,,0.00,weatherlink.com 1.10,2013-02-21 13:48:00,
2013-02-21 07:03:00,15.8,13.0,29.94,ENE,65,0.0,2.0,87,0.00,,,0.00,weatherlink.com 1.10,2013-02-21 14:03:00,
2013-02-21 07:18:00,15.8,12.0,29.95,NNE,22,0.0,2.0,86,0.00,,,0.00,weatherlink.com 1.10,2013-02-21 14:18:00,
2013-02-21 07:33:00,16.0,13.0,29.96,NE,37,0.0,2.0,86,0.00,,,0.00,weatherlink.com 1.10,2013-02-21 14:33:00,
2013-02-21 07:48:00,16.5,13.0,29.96,NNE,24,2.0,2.0,86,0.00,,,0.00,weatherlink.com 1.10,2013-02-21 14:48:00,
2013-02-21 08:03:00,16.6,13.0,29.97,NNE,32,1.0,2.0,85,0.00,,,0.00,weatherlink.com 1.10,2013-02-21 15:03:00,
2013-02-21 08:18:00,17.2,14.0,29.96,NNW,333,0.0,2.0,85,0.00,,,0.00,weatherlink.com 1.10,2013-02-21 15:18:00,
2013-02-21 08:33:00,17.3,13.0,29.97,NNE,15,1.0,2.0,83,0.00,,,0.00,weatherlink.com 1.10,2013-02-21 15:33:00,
2013-02-21 08:48:00,17.6,14.0,29.98,NNE,15,0.0,1.0,84,0.00,,,0.00,weatherlink.com 1.10,2013-02-21 15:48:00,
2013-02-21 09:03:00,18.0,14.0,29.98,NNW,332,0.0,2.0,83,0.00,,,0.00,weatherlink.com 1.10,2013-02-21 16:03:00,
2013-02-21 09:18:00,18.3,14.0,29.98,NNW,346,0.0,2.0,84,0.00,,,0.00,weatherlink.com 1.10,2013-02-21 16:18:00,
2013-02-21 09:33:00,19.4,16.0,29.99,NNW,346,0.0,1.0,85,0.00,,,0.00,weatherlink.com 1.10,2013-02-21 16:33:00,
2013-02-21 09:48:00,20.6,16.0,29.99,NNW,347,0.0,1.0,83,0.00,,,0.00,weatherlink.com 1.10,2013-02-21 16:48:00,
2013-02-21 10:03:00,20.9,16.0,30.00,North,5,0.0,3.0,82,0.00,,,0.00,weatherlink.com 1.10,2013-02-21 17:03:00,
2013-02-21 10:18:00,21.0,17.0,30.00,North,350,1.0,3.0,83,0.00,,,0.00,weatherlink.com 1.10,2013-02-21 17:18:00,
2013-02-21 10:33:00,21.7,17.0,30.00,North,5,2.0,3.0,82,0.00,,,0.00,weatherlink.com 1.10,2013-02-21 17:33:00,
2013-02-21 10:48:00,22.1,17.0,30.00,NE,42,3.0,4.0,81,0.00,,,0.00,weatherlink.com 1.10,2013-02-21 17:48:00,
2013-02-21 11:03:00,22.9,17.0,30.00,NNE,33,2.0,6.0,79,0.00,,,0.00,weatherlink.com 1.10,2013-02-21 18:03:00,
2013-02-21 11:18:00,23.5,17.0,30.00,WNW,298,1.0,4.0,77,0.00,,,0.00,weatherlink.com 1.10,2013-02-21 18:18:00,
2013-02-21 11:33:00,23.4,18.0,29.99,WNW,294,0.0,4.0,78,0.00,,,0.00,weatherlink.com 1.10,2013-02-21 18:33:00,
2013-02-21 11:48:00,23.6,17.0,29.99,NNE,32,3.0,7.0,75,0.00,,,0.00,weatherlink.com 1.10,2013-02-21 18:48:00,
2013-02-21 12:04:00,23.5,17.0,29.98,NE,47,6.0,6.0,77,0.00,,,0.00,weatherlink.com 1.10,2013-02-21 19:04:00,
2013-02-21 12:18:00,23.8,18.0,29.98,North,9,1.0,4.0,77,0.00,,,0.00,weatherlink.com 1.10,2013-02-21 19:18:00,
2013-02-21 12:33:00,24.3,17.0,29.98,North,355,2.0,5.0,74,0.00,,,0.00,weatherlink.com 1.10,2013-02-21 19:33:00,
2013-02-21 12:48:00,24.7,18.0,29.97,North,350,0.0,4.0,74,0.00,,,0.00,weatherlink.com 1.10,2013-02-21 19:48:00,
2013-02-21 13:03:00,25.3,17.0,29.96,NNE,26,1.0,5.0,72,0.00,,,0.00,weatherlink.com 1.10,2013-02-21 20:03:00,
2013-02-21 13:18:00,25.1,18.0,29.96,NE,38,4.0,8.0,73,0.00,,,0.00,weatherlink.com 1.10,2013-02-21 20:18:00,
2013-02-21 13:33:00,24.8,17.0,29.96,North,5,2.0,7.0,72,0.00,,,0.00,weatherlink.com 1.10,2013-02-21 20:33:00,
2013-02-21 13:49:00,25.3,18.0,29.95,NE,38,2.0,5.0,73,0.00,,,0.00,weatherlink.com 1.10,2013-02-21 20:49:00,
2013-02-21 14:03:00,25.8,18.0,29.96,NE,40,1.0,6.0,71,0.00,,,0.00,weatherlink.com 1.10,2013-02-21 21:03:00,
2013-02-21 14:18:00,26.0,17.0,29.96,NE,37,3.0,6.0,69,0.00,,,0.00,weatherlink.com 1.10,2013-02-21 21:18:00,
2013-02-21 14:34:00,25.8,17.0,29.96,NNE,28,1.0,7.0,69,0.00,,,0.00,weatherlink.com 1.10,2013-02-21 21:34:00,
2013-02-21 14:48:00,25.7,17.0,29.97,North,10,2.0,6.0,69,0.00,,,0.00,weatherlink.com 1.10,2013-02-21 21:48:00,
2013-02-21 15:03:00,25.5,17.0,29.97,NNW,346,4.0,4.0,70,0.00,,,0.00,weatherlink.com 1.10,2013-02-21 22:03:00,
2013-02-21 15:18:00,25.2,17.0,29.97,NNE,18,2.0,5.0,72,0.00,,,0.00,weatherlink.com 1.10,2013-02-21 22:18:00,
2013-02-21 15:33:00,25.5,18.0,29.98,North,360,2.0,5.0,72,0.00,,,0.00,weatherlink.com 1.10,2013-02-21 22:33:00,
2013-02-21 15:48:00,24.9,17.0,29.98,NNE,26,5.0,7.0,72,0.00,,,0.00,weatherlink.com 1.10,2013-02-21 22:48:00,
2013-02-21 16:03:00,24.8,18.0,29.99,NE,44,0.0,4.0,74,0.00,,,0.00,weatherlink.com 1.10,2013-02-21 23:03:00,
2013-02-21 16:18:00,25.0,18.0,29.99,NE,44,0.0,2.0,74,0.00,,,0.00,weatherlink.com 1.10,2013-02-21 23:18:00,
2013-02-21 16:33:00,24.6,18.0,30.00,NNE,31,0.0,3.0,75,0.00,,,0.00,weatherlink.com 1.10,2013-02-21 23:33:00,
2013-02-21 16:48:00,24.4,18.0,30.00,NW,314,1.0,2.0,78,0.00,,,0.00,weatherlink.com 1.10,2013-02-21 23:48:00,
2013-02-21 17:04:00,24.1,18.0,30.01,NW,325,0.0,2.0,78,0.00,,,0.00,weatherlink.com 1.10,2013-02-22 00:04:00,
2013-02-21 17:19:00,24.0,18.0,30.01,NW,325,0.0,1.0,79,0.00,,,0.00,weatherlink.com 1.10,2013-02-22 00:19:00,
2013-02-21 17:34:00,23.9,18.0,30.02,NNE,23,1.0,3.0,79,0.00,,,0.00,weatherlink.com 1.10,2013-02-22 00:34:00,
2013-02-21 17:49:00,23.8,19.0,30.03,NE,44,0.0,3.0,83,0.00,,,0.00,weatherlink.com 1.10,2013-02-22 00:49:00,
2013-02-21 18:04:00,23.4,19.0,30.04,East,87,0.0,3.0,84,0.00,,,0.00,weatherlink.com 1.10,2013-02-22 01:04:00,
2013-02-21 18:19:00,23.3,20.0,30.05,ENE,73,0.0,2.0,85,0.00,,,0.00,weatherlink.com 1.10,2013-02-22 01:19:00,
2013-02-21 18:34:00,23.4,20.0,30.06,East,87,0.0,2.0,86,0.00,,,0.00,weatherlink.com 1.10,2013-02-22 01:34:00,
2013-02-21 18:49:00,23.1,19.0,30.07,East,87,1.0,2.0,85,0.00,,,0.00,weatherlink.com 1.10,2013-02-22 01:49:00,
2013-02-21 19:04:00,23.0,19.0,30.07,East,87,0.0,3.0,85,0.00,,,0.00,weatherlink.com 1.10,2013-02-22 02:04:00,
2013-02-21 19:19:00,23.0,19.0,30.08,East,87,0.0,2.0,84,0.00,,,0.00,weatherlink.com 1.10,2013-02-22 02:19:00,
2013-02-21 19:34:00,22.9,19.0,30.08,East,87,0.0,2.0,83,0.00,,,0.00,weatherlink.com 1.10,2013-02-22 02:34:00,
2013-02-21 19:49:00,22.8,19.0,30.09,East,87,0.0,1.0,84,0.00,,,0.00,weatherlink.com 1.10,2013-02-22 02:49:00,
2013-02-21 20:04:00,22.8,18.0,30.09,East,87,0.0,1.0,83,0.00,,,0.00,weatherlink.com 1.10,2013-02-22 03:04:00,
2013-02-21 20:19:00,22.7,18.0,30.09,East,87,0.0,1.0,83,0.00,,,0.00,weatherlink.com 1.10,2013-02-22 03:19:00,
2013-02-21 20:34:00,22.3,18.0,30.09,East,87,0.0,2.0,83,0.00,,,0.00,weatherlink.com 1.10,2013-02-22 03:34:00,
2013-02-21 21:04:00,21.9,18.0,30.10,East,87,0.0,2.0,83,0.00,,,0.00,weatherlink.com 1.10,2013-02-22 04:04:00,
2013-02-21 21:19:00,22.0,18.0,30.09,SE,137,4.0,4.0,84,0.00,,,0.00,weatherlink.com 1.10,2013-02-22 04:19:00,
2013-02-21 21:34:00,21.9,18.0,30.10,SE,140,2.0,4.0,84,0.00,,,0.00,weatherlink.com 1.10,2013-02-22 04:34:00,
2013-02-21 21:49:00,21.9,18.0,30.09,SE,145,0.0,2.0,84,0.00,,,0.00,weatherlink.com 1.10,2013-02-22 04:49:00,
2013-02-21 22:04:00,21.8,17.0,30.09,SE,137,0.0,3.0,83,0.00,,,0.00,weatherlink.com 1.10,2013-02-22 05:04:00,
2013-02-21 22:19:00,21.7,17.0,30.09,SE,136,1.0,2.0,83,0.00,,,0.00,weatherlink.com 1.10,2013-02-22 05:19:00,
2013-02-21 22:34:00,21.5,17.0,30.08,SE,136,0.0,2.0,83,0.00,,,0.00,weatherlink.com 1.10,2013-02-22 05:34:00,
2013-02-21 22:49:00,21.0,17.0,30.08,SE,136,0.0,1.0,83,0.00,,,0.00,weatherlink.com 1.10,2013-02-22 05:49:00,
2013-02-21 23:04:00,20.6,16.0,30.07,SE,139,0.0,2.0,83,0.00,,,0.00,weatherlink.com 1.10,2013-02-22 06:04:00,
2013-02-21 23:19:00,20.6,16.0,30.07,SE,146,0.0,2.0,83,0.00,,,0.00,weatherlink.com 1.10,2013-02-22 06:19:00,
2013-02-21 23:34:00,20.4,16.0,30.07,SE,146,0.0,1.0,82,0.00,,,0.00,weatherlink.com 1.10,2013-02-22 06:34:00,
2013-02-21 23:49:00,20.3,16.0,30.07,SE,146,0.0,1.0,82,0.00,,,0.00,weatherlink.com 1.10,2013-02-22 06:49:00,